FW4702 Weather Reports


Display with metric or nautical units.
time (UTC)temp
F
wind
direction
speed
MPH
gust
MPH
rain 1hr
in
rain 24hr
in
rain mn
in
humidity
%
barometer
mb
20260505235600 71 186 1.0 3.0 0.00 0.01 0.01 65 1011.1
20260505235056 71 196 1.0 3.0 0.00 0.01 0.01 66 1011.0
20260505234557 71 0 1.0 3.0 0.00 0.01 0.01 65 1011.1
20260505234056 71 194 1.0 3.0 0.00 0.01 0.01 65 1011.2
20260505233556 71 190 1.0 4.0 0.00 0.01 0.01 65 1011.3
20260505233100 71 194 1.0 4.0 0.00 0.01 0.01 65 1011.4
20260505232557 71 179 0.0 4.0 0.00 0.01 0.01 66 1011.5
20260505232057 71 179 0.0 5.0 0.00 0.01 0.01 65 1011.5
20260505231612 72 184 2.0 5.0 0.00 0.01 0.01 63 1011.6
20260505231056 71 184 1.0 4.0 0.00 0.01 0.01 65 1011.8
20260505230556 72 184 1.0 4.0 0.00 0.01 0.01 64 1011.9
20260505230107 72 187 1.0 4.0 0.00 0.01 0.01 63 1011.8
20260505225601 72 207 1.0 6.0 0.00 0.01 0.01 64 1011.8
20260505225057 72 199 1.0 6.0 0.00 0.01 0.01 63 1011.8
20260505224601 72 178 1.0 4.0 0.00 0.01 0.01 63 1011.8
20260505224059 72 189 1.0 7.0 0.00 0.01 0.01 63 1011.8
20260505223600 72 180 1.0 7.0 0.00 0.01 0.01 62 1011.9
20260505223056 72 175 2.0 7.0 0.00 0.01 0.01 62 1012.0
20260505222558 72 200 2.0 4.0 0.00 0.01 0.01 62 1012.2
20260505222057 72 188 1.0 4.0 0.00 0.01 0.01 63 1012.2
20260505221601 72 182 2.0 6.0 0.00 0.01 0.01 63 1012.2
20260505221055 72 207 1.0 6.0 0.00 0.01 0.01 64 1012.1
20260505220557 72 221 1.0 5.0 0.00 0.01 0.01 63 1011.9
20260505220058 72 186 2.0 5.0 0.00 0.01 0.01 62 1012.1
20260505215557 72 217 1.0 5.0 0.00 0.01 0.01 62 1012.2
20260505215057 72 173 1.0 5.0 0.00 0.01 0.01 62 1012.2
20260505214554 72 184 2.0 6.0 0.00 0.01 0.01 61 1012.1
20260505214100 72 186 3.0 6.0 0.00 0.01 0.01 61 1012.0
20260505213558 72 223 3.0 6.0 0.00 0.01 0.01 61 1012.1
20260505213057 72 189 3.0 6.0 0.00 0.01 0.01 60 1012.1
20260505212559 72 188 2.0 6.0 0.00 0.01 0.01 60 1012.2
20260505212056 72 183 2.0 6.0 0.00 0.01 0.01 61 1012.3
20260505211554 72 199 2.0 5.0 0.00 0.01 0.01 62 1012.2
20260505211056 72 194 2.0 6.0 0.00 0.01 0.01 61 1012.2
20260505210557 73 230 2.0 6.0 0.00 0.01 0.01 61 1012.2
20260505210057 72 186 3.0 6.0 0.00 0.01 0.01 60 1012.2
20260505205556 72 201 1.0 6.0 0.00 0.01 0.01 61 1012.2
20260505205057 72 188 2.0 3.0 0.00 0.01 0.01 62 1012.1
20260505204602 71 184 1.0 3.0 0.00 0.01 0.01 62 1012.0
20260505204056 71 182 1.0 4.0 0.00 0.01 0.01 62 1012.1
20260505203556 71 202 1.0 4.0 0.00 0.01 0.01 62 1011.9
20260505203101 71 194 1.0 5.0 0.00 0.01 0.01 61 1011.9
20260505202557 71 188 2.0 5.0 0.00 0.01 0.01 60 1011.9
20260505202057 71 214 2.0 5.0 0.00 0.01 0.01 60 1012.0
20260505201557 71 180 1.0 4.0 0.00 0.01 0.01 60 1012.1
20260505201058 71 186 1.0 4.0 0.00 0.01 0.01 61 1012.1
20260505200557 71 162 0.0 4.0 0.00 0.01 0.01 61 1012.1
20260505200100 71 223 1.0 5.0 0.00 0.01 0.01 61 1012.1
20260505195558 71 186 1.0 5.0 0.00 0.01 0.01 60 1012.3
20260505195056 71 176 0.0 5.0 0.00 0.01 0.01 61 1012.3
20260505194618 71 216 1.0 3.0 0.00 0.01 0.01 60 1012.2
20260505194056 71 169 1.0 3.0 0.00 0.01 0.01 60 1012.1
20260505193557 71 0 1.0 3.0 0.00 0.01 0.01 60 1012.0
20260505193054 71 0 0.0 4.0 0.00 0.01 0.01 60 1012.1
20260505192556 71 190 1.0 5.0 0.00 0.01 0.01 58 1012.3
20260505192056 71 210 1.0 5.0 0.00 0.01 0.01 56 1012.4
20260505191606 71 155 0.0 4.0 0.00 0.01 0.01 55 1012.5
20260505191057 72 184 1.0 5.0 0.00 0.01 0.01 53 1012.9
20260505190556 72 193 2.0 5.0 0.01 0.01 0.01 55 1013.6
20260505190056 72 215 0.0 4.0 0.01 0.01 0.01 58 1013.7
20260505185556 72 215 1.0 4.0 0.01 0.01 0.01 56 1013.9
20260505185057 72 201 2.0 4.0 0.01 0.01 0.01 54 1014.0
20260505184558 73 221 2.0 4.0 0.01 0.01 0.01 52 1014.0
20260505184057 73 228 1.0 4.0 0.01 0.01 0.01 53 1013.9
20260505183556 73 200 1.0 4.0 0.01 0.01 0.01 49 1014.0
20260505183057 74 207 2.0 4.0 0.01 0.01 0.01 50 1014.0
20260505182557 74 227 1.0 6.0 0.01 0.01 0.01 53 1013.9
20260505182100 74 200 2.0 6.0 0.01 0.01 0.01 51 1013.9
20260505181558 74 191 2.0 6.0 0.01 0.01 0.01 48 1014.0
20260505181058 73 196 2.0 6.0 0.01 0.01 0.01 47 1014.1
20260505180556 74 238 2.0 5.0 0.00 0.00 0.00 48 1014.2
20260505180058 74 0 2.0 5.0 0.00 0.00 0.00 52 1014.1
20260505175556 74 220 2.0 6.0 0.00 0.00 0.00 51 1014.1
20260505175056 74 176 3.0 6.0 0.00 0.00 0.00 50 1014.0
20260505174555 74 157 2.0 5.0 0.00 0.00 0.00 48 1014.0
20260505174057 74 221 2.0 5.0 0.00 0.00 0.00 51 1014.0
20260505173557 74 202 1.0 5.0 0.00 0.00 0.00 52 1014.0
20260505173113 73 0 1.0 5.0 0.00 0.00 0.00 50 1014.1
20260505172555 73 227 3.0 5.0 0.00 0.00 0.00 48 1014.2
20260505172056 73 209 2.0 5.0 0.00 0.00 0.00 53 1014.2
20260505171622 73 214 3.0 5.0 0.00 0.00 0.00 49 1014.3
20260505171059 73 180 2.0 5.0 0.00 0.00 0.00 52 1014.4
20260505170557 73 261 3.0 5.0 0.00 0.00 0.00 49 1014.4
20260505170055 72 218 3.0 5.0 0.00 0.00 0.00 55 1014.5
20260505165557 72 255 1.0 5.0 0.00 0.00 0.00 56 1014.6
20260505165056 72 192 1.0 6.0 0.00 0.00 0.00 57 1014.6
20260505164601 72 220 2.0 6.0 0.00 0.00 0.00 58 1014.6
20260505164056 73 226 2.0 5.0 0.00 0.00 0.00 55 1014.7
20260505163556 73 184 1.0 3.0 0.00 0.00 0.00 59 1014.5
20260505163057 72 222 1.0 4.0 0.00 0.00 0.00 60 1014.5
20260505162556 72 185 1.0 5.0 0.00 0.00 0.00 63 1014.6
20260505162057 72 202 1.0 5.0 0.00 0.00 0.00 60 1014.6
20260505161605 71 146 2.0 5.0 0.00 0.00 0.00 61 1014.6
20260505161057 71 217 2.0 6.0 0.00 0.00 0.00 61 1014.5
20260505160558 71 212 1.0 6.0 0.00 0.00 0.00 62 1014.5
20260505153057 69 151 0.0 4.0 0.00 0.00 0.00 63 1014.4
20260505152557 69 146 1.0 4.0 0.00 0.00 0.00 61 1014.4
20260505152056 69 205 1.0 4.0 0.00 0.00 0.00 66 1014.3
20260505151559 69 176 1.0 4.0 0.00 0.00 0.00 64 1014.3
20260505151056 69 211 2.0 4.0 0.00 0.00 0.00 63 1014.4
20260505150556 69 0 1.0 3.0 0.00 0.00 0.00 67 1014.3
20260505150116 69 189 0.0 3.0 0.00 0.00 0.00 71 1014.3
20260505140556 64 109 1.0 4.0 0.00 0.00 0.00 74 1014.4
20260505130104 61 217 0.0 2.0 0.00 0.00 0.00 80 1014.6
20260505124558 59 0 0.0 1.0 0.00 0.00 0.00 84 1014.1
20260505124058 59 0 0.0 1.0 0.00 0.00 0.00 83 1014.1
20260505123558 59 0 0.0 1.0 0.00 0.00 0.00 84 1014.2
20260505123103 58 0 0.0 1.0 0.00 0.00 0.00 86 1014.2
20260505122556 57 0 0.0 1.0 0.00 0.00 0.00 89 1014.1
20260505122056 56 0 0.0 0.0 0.00 0.00 0.00 92 1014.1
20260505121622 55 0 0.0 0.0 0.00 0.00 0.00 94 1014.2
20260505121056 53 0 0.0 0.0 0.00 0.00 0.00 95 1014.1
20260505120555 53 0 0.0 0.0 0.00 0.00 0.00 95 1014.0
20260505115555 52 0 0.0 0.0 0.00 0.00 0.00 95 1014.2
20260505115055 52 0 0.0 0.0 0.00 0.00 0.00 94 1014.0
20260505114556 52 0 0.0 0.0 0.00 0.00 0.00 94 1013.8
20260505114055 52 0 0.0 0.0 0.00 0.00 0.00 95 1013.7
20260505113557 52 0 0.0 0.0 0.00 0.00 0.00 94 1013.5
20260505113059 52 0 0.0 0.0 0.00 0.00 0.00 95 1013.4
20260505112556 51 0 0.0 0.0 0.00 0.00 0.00 95 1013.4
20260505112056 51 0 0.0 0.0 0.00 0.00 0.00 94 1013.3
20260505111557 52 0 0.0 0.0 0.00 0.00 0.00 94 1013.3
20260505111100 52 0 0.0 0.0 0.00 0.00 0.00 94 1013.4
20260505110557 51 0 0.0 0.0 0.00 0.00 0.00 94 1013.3
20260505102055 53 0 0.0 0.0 0.00 0.00 0.00 92 1012.9
20260505101558 53 0 0.0 0.0 0.00 0.00 0.00 92 1012.8
20260505101054 53 0 0.0 0.0 0.00 0.00 0.00 91 1012.8
20260505100557 53 0 0.0 0.0 0.00 0.00 0.00 90 1012.7
20260505100135 54 0 0.0 0.0 0.00 0.00 0.00 89 1012.8
20260505095600 54 0 0.0 0.0 0.00 0.00 0.00 89 1012.7
20260505095056 54 0 0.0 0.0 0.00 0.00 0.00 89 1012.6
20260505094555 53 0 0.0 0.0 0.00 0.00 0.00 90 1012.5
20260505094056 53 0 0.0 0.0 0.00 0.00 0.00 91 1012.5
20260505093556 53 0 0.0 0.0 0.00 0.00 0.00 93 1012.6
20260505093056 52 0 0.0 0.0 0.00 0.00 0.00 93 1012.5
20260505092556 52 0 0.0 0.0 0.00 0.00 0.00 93 1012.4
20260505092055 52 0 0.0 0.0 0.00 0.00 0.00 93 1012.5
20260505091616 52 0 0.0 0.0 0.00 0.00 0.00 93 1012.6
20260505091055 52 0 0.0 0.0 0.00 0.00 0.00 93 1012.6
20260505090556 52 0 0.0 0.0 0.00 0.00 0.00 93 1012.7
20260505085553 52 0 0.0 0.0 0.00 0.00 0.00 93 1012.6
20260505085059 52 0 0.0 0.0 0.00 0.00 0.00 93 1012.5
20260505084555 52 0 0.0 0.0 0.00 0.00 0.00 93 1012.8
20260505084053 52 0 0.0 0.0 0.00 0.00 0.00 94 1012.7
20260505083559 52 0 0.0 0.0 0.00 0.00 0.00 94 1012.6
20260505083056 51 0 0.0 0.0 0.00 0.00 0.00 94 1012.6
20260505082555 51 0 0.0 0.0 0.00 0.00 0.00 94 1012.6
20260505082056 51 0 0.0 0.0 0.00 0.00 0.00 94 1012.7
20260505081555 51 0 0.0 0.0 0.00 0.00 0.00 94 1012.7
20260505081056 52 0 0.0 0.0 0.00 0.00 0.00 94 1012.7
20260505080558 52 0 0.0 0.0 0.00 0.00 0.00 94 1012.8
20260505080054 52 0 0.0 0.0 0.00 0.00 0.00 94 1012.8
20260505075556 52 0 0.0 0.0 0.00 0.00 0.00 94 1012.9
20260505075057 52 0 0.0 0.0 0.00 0.00 0.00 94 1013.0
20260505074557 52 0 0.0 0.0 0.00 0.00 0.00 93 1013.0
20260505074058 52 0 0.0 0.0 0.00 0.00 0.00 94 1013.1
20260505073556 52 0 0.0 0.0 0.00 0.00 0.00 93 1013.2
20260505073100 52 0 0.0 0.0 0.00 0.00 0.00 93 1013.3
20260505072555 52 0 0.0 0.0 0.00 0.00 0.00 93 1013.3
20260505072056 52 0 0.0 0.0 0.00 0.00 0.00 93 1013.2
20260505071555 52 0 0.0 0.0 0.00 0.00 0.00 93 1013.2
20260505071055 52 0 0.0 0.0 0.00 0.00 0.00 93 1013.2
20260505070556 52 0 0.0 0.0 0.00 0.00 0.00 93 1013.2
20260505070057 53 0 0.0 0.0 0.00 0.00 0.00 93 1013.2
20260505065557 53 0 0.0 0.0 0.00 0.00 0.00 93 1013.3
20260505065057 53 0 0.0 0.0 0.00 0.00 0.00 92 1013.2
20260505064604 53 0 0.0 0.0 0.00 0.00 0.00 92 1013.3
20260505064056 53 0 0.0 0.0 0.00 0.00 0.00 92 1013.3
20260505063557 53 0 0.0 0.0 0.00 0.00 0.00 92 1013.3
20260505063056 53 0 0.0 0.0 0.00 0.00 0.00 92 1013.3
20260505062556 53 0 0.0 0.0 0.00 0.00 0.00 91 1013.4
20260505062056 54 0 0.0 0.0 0.00 0.00 0.00 91 1013.4
20260505061554 54 0 0.0 0.0 0.00 0.00 0.00 91 1013.5
20260505061056 54 0 0.0 0.0 0.00 0.00 0.00 91 1013.5
20260505060559 54 0 0.0 0.0 0.00 0.00 0.00 91 1013.6
20260505060057 54 0 0.0 0.0 0.00 0.00 0.00 90 1013.6
20260505055556 54 0 0.0 0.0 0.00 0.00 0.00 90 1013.5
20260505055056 54 0 0.0 0.0 0.00 0.00 0.00 90 1013.6
20260505054620 54 0 0.0 0.0 0.00 0.00 0.00 90 1013.6
20260505054058 54 0 0.0 0.0 0.00 0.00 0.00 90 1013.6
20260505053555 54 0 0.0 0.0 0.00 0.00 0.00 90 1013.6
20260505053056 54 0 0.0 0.0 0.00 0.00 0.00 89 1013.6
20260505052555 55 0 0.0 0.0 0.00 0.00 0.00 88 1013.6
20260505052055 55 0 0.0 0.0 0.00 0.00 0.00 89 1013.7
20260505051555 55 0 0.0 0.0 0.00 0.00 0.00 89 1013.7
20260505051057 55 0 0.0 0.0 0.00 0.00 0.00 89 1013.7
20260505050558 55 0 0.0 0.0 0.00 0.00 0.00 88 1013.7
20260505041608 56 0 0.0 0.0 0.00 0.00 0.00 86 1013.6
20260505041057 56 0 0.0 0.0 0.00 0.00 0.00 86 1013.6
20260505040556 57 0 0.0 0.0 0.00 0.00 0.00 86 1013.6
20260505040055 57 0 0.0 0.0 0.00 0.00 0.00 85 1013.5
20260505035556 57 0 0.0 0.0 0.00 0.00 0.00 85 1013.5
20260505035056 57 0 0.0 0.0 0.00 0.00 0.00 85 1013.6
20260505034556 57 0 0.0 0.0 0.00 0.00 0.00 85 1013.6
20260505034056 57 0 0.0 0.0 0.00 0.00 0.00 84 1013.6
20260505033556 58 0 0.0 0.0 0.00 0.00 0.00 84 1013.6
20260505033056 58 0 0.0 0.0 0.00 0.00 0.00 84 1013.6
20260505032555 58 0 0.0 0.0 0.00 0.00 0.00 84 1013.6
20260505032055 58 0 0.0 0.0 0.00 0.00 0.00 81 1013.7
20260505031555 59 0 0.0 0.0 0.00 0.00 0.00 82 1013.7
20260505031056 59 0 0.0 0.0 0.00 0.00 0.00 81 1013.8
20260505030557 59 0 0.0 0.0 0.00 0.00 0.00 80 1013.7
20260505030108 60 0 0.0 0.0 0.00 0.00 0.00 79 1013.7
20260505025556 58 0 0.0 0.0 0.00 0.00 0.00 82 1013.7
20260505025059 59 0 0.0 0.0 0.00 0.00 0.00 81 1013.7
20260505024602 59 0 0.0 0.0 0.00 0.00 0.00 80 1013.7
20260505024056 60 0 0.0 0.0 0.00 0.00 0.00 77 1013.6
20260505023556 60 0 0.0 0.0 0.00 0.00 0.00 79 1013.7
20260505023109 59 0 0.0 0.0 0.00 0.00 0.00 81 1013.7
20260505022559 60 0 0.0 0.0 0.00 0.00 0.00 82 1013.6
20260505022057 60 0 0.0 0.0 0.00 0.00 0.00 81 1013.6
20260505021600 60 0 0.0 0.0 0.00 0.00 0.00 81 1013.5
20260505021056 60 0 0.0 0.0 0.00 0.00 0.00 80 1013.4
20260505020556 61 0 0.0 0.0 0.00 0.00 0.00 79 1013.4
20260505020103 61 0 0.0 0.0 0.00 0.00 0.00 79 1013.3
20260505015556 61 0 0.0 0.0 0.00 0.00 0.00 76 1013.2
20260505015056 61 0 0.0 0.0 0.00 0.00 0.00 78 1013.2
20260505014557 62 0 0.0 0.0 0.00 0.00 0.00 78 1013.1
20260505014100 62 0 0.0 0.0 0.00 0.00 0.00 74 1013.0
20260505013555 62 0 0.0 0.0 0.00 0.00 0.00 75 1013.0
20260505013056 62 0 0.0 0.0 0.00 0.00 0.00 75 1013.0
20260505012555 63 0 0.0 0.0 0.00 0.00 0.00 75 1013.0
20260505012056 64 0 0.0 0.0 0.00 0.00 0.00 75 1013.0
20260505011555 64 0 0.0 0.0 0.00 0.00 0.00 73 1013.0
20260505011056 65 0 0.0 0.0 0.00 0.00 0.00 72 1013.1
20260505010558 66 0 0.0 0.0 0.00 0.00 0.00 68 1012.9
20260505010112 67 0 0.0 0.0 0.00 0.00 0.00 63 1012.9
20260505005556 67 0 0.0 1.0 0.00 0.00 0.00 61 1013.0
20260505005056 68 0 0.0 1.0 0.00 0.00 0.00 66 1012.9
20260505004558 69 0 0.0 1.0 0.00 0.00 0.00 61 1012.9
20260505004055 70 0 0.0 1.0 0.00 0.00 0.00 54 1012.8
20260505003555 70 0 0.0 1.0 0.00 0.00 0.00 54 1012.8
20260505003055 70 0 0.0 2.0 0.00 0.00 0.00 53 1012.8
20260505002555 71 0 0.0 2.0 0.00 0.00 0.00 53 1012.8
20260505002057 72 193 0.0 2.0 0.00 0.00 0.00 51 1012.8
20260505001554 72 174 0.0 2.0 0.00 0.00 0.00 50 1012.7
20260505001056 72 0 0.0 2.0 0.00 0.00 0.00 49 1012.7
20260505000556 72 191 0.0 5.0 0.00 0.00 0.00 50 1012.7
20260505000101 72 169 0.0 5.0 0.00 0.00 0.00 49 1012.7